SB KEPS @ AMSAT $ORB11097.N 2Line Orbital Elements 11097.AMSAT
HR AMSAT ORBITAL ELEMENTS FOR AMATEUR SATELLITES IN NASA FORMAT FROM WA5QGD FORT WORTH,TX April 7, 2011 Send Subscribe/unsubscribe to KEPS at http://www.amsat.org/mailman/listinfo/keps BID: ORB11097.N
DECODE 2-LINE ELSETS WITH THE FOLLOWING KEY: 1 AAAAAU 00 0 0 BBBBB.BBBBBBBB .CCCCCCCC 00000-0 00000-0 0 DDDZ 2 AAAAA EEE.EEEE FFF.FFFF GGGGGGG HHH.HHHH III.IIII JJ.JJJJJJJJKKKKKZ KEY: A-CATALOGNUM B-EPOCHTIME C-DECAY D-ELSETNUM E-INCLINATION F-RAAN G-ECCENTRICITY H-ARGPERIGEE I-MNANOM J-MNMOTION K-ORBITNUM Z-CHECKSUM
TO ALL RADIO AMATEURS BT
AO-07 1 07530U 74089B 11097.60760453 -.00000027 00000-0 10000-3 0 470 2 07530 101.3942 106.9331 0012093 058.1726 302.0519 12.53581871665349 FO-29 1 24278U 96046B 11096.91526350 -.00000052 00000-0 -19845-4 0 05576 2 24278 098.5371 250.6848 0351424 082.0218 282.0632 13.52959291722821 SO-33 1 25509U 98061B 11097.71557298 .00000451 00000-0 78432-4 0 9399 2 25509 031.4368 282.8880 0353531 345.2936 013.7589 14.28382621650197 RS-22 1 27939U 03042A 11097.73664501 .00000596 00000-0 12332-3 0 1456 2 27939 097.8556 315.0714 0012915 204.3133 155.7464 14.63546653402031 VO-52 1 28650U 05017B 11096.79815065 .00001013 00000-0 13332-3 0 7619 2 28650 097.6502 143.0993 0027714 037.9618 322.3505 14.81980029320171 SO-67 1 35870U 09049F 11097.75639126 .00004254 00000-0 19169-3 0 7196 2 35870 097.2878 143.4355 0004094 128.2691 008.6721 15.21565322 86232 HO-68 1 36122U 09072B 11097.70335782 -.00000044 00000-0 00000 0 0 2648 2 36122 100.4228 159.5632 0007817 029.5128 330.6423 13.16285059 62968 UO-11 1 14781U 84021B 11097.82413601 .00000609 00000-0 87694-4 0 5156 2 14781 098.0132 154.7311 0009447 012.9797 347.1655 14.79929142455381 AO-16 1 20439U 90005D 11096.95750084 .00000168 00000-0 78512-4 0 01597 2 20439 098.3768 048.9827 0011538 019.2194 340.9417 14.31907260107428 LO-19 1 20442U 90005G 11096.97831533 .00000240 00000-0 10477-3 0 00799 2 20442 098.3398 053.6308 0012215 012.8454 347.3035 14.32134438107606 AO-27 1 22825U 93061C 11096.88820116 .00000252 00000-0 11590-3 0 07939 2 22825 098.5252 042.8347 0009217 122.0506 238.1568 14.29336752914004 IO-26 1 22826U 93061D 11097.74056310 .00000144 00000-0 73101-4 0 5309 2 22826 098.5201 044.1667 0009639 113.7726 246.4474 14.29597358914243 GO-32 1 25397U 98043D 11096.62385528 -.00000113 00000-0 -32127-4 0 04492 2 25397 098.3232 093.0249 0002225 113.6169 246.5236 14.23201346661782 NO-44 1 26931U 01043C 11097.73358311 .00000001 00000-0 32510-4 0 7217 2 26931 067.0513 165.0643 0007227 269.2019 090.8262 14.29645946496856 SO-50 1 27607U 02058C 11096.71700708 .00000628 00000-0 11914-3 0 4332 2 27607 064.5585 184.8423 0064989 337.4727 022.3513 14.71687694445570 CO-55 1 27844U 03031E 11097.54324958 .00000710 00000-0 34894-3 0 822 2 27844 098.7059 107.2707 0010440 045.8406 314.3629 14.20789733402889 CO-57 1 27848U 03031J 11096.56011259 .00000201 00000-0 11361-3 0 306 2 27848 098.7146 105.4657 0010562 052.3016 307.9130 14.20570111402691 AO-51 1 28375U 04025K 11097.48132580 .00000131 00000-0 52197-4 0 9381 2 28375 098.0915 079.6682 0083314 285.2699 073.9303 14.40740634355884 CP3 1 31129U 07012N 11096.64237937 .00000900 00000-0 21633-3 0 8372 2 31129 097.9065 124.9728 0102959 043.6931 317.2338 14.52424550210450 CO-65 1 32785U 08021C 11097.65601493 .00001172 00000-0 15444-3 0 9574 2 32785 097.8552 162.8798 0015803 048.6984 311.5594 14.81907234159091 KKS-1 1 33493U 09002B 11097.85713606 .00003988 00000-0 51414-3 0 4662 2 33493 098.1152 225.4932 0018804 267.7626 092.1430 14.81497010119100 SOHLA-1 1 33496U 09002E 11096.90004653 .00000491 00000-0 90869-4 0 03848 2 33496 098.0721 207.4821 0006665 359.5320 000.5877 14.69584472118016 TISAT-1 1 36799U 10035E 11097.71318270 .00001659 00000-0 22374-3 0 7417 2 36799 098.1068 165.2517 0016379 142.1276 218.1085 14.80424543 39882 STUDSAT 1 36801U 10035G 11097.78867209 .00005444 00000-0 72032-3 0 1639 2 36801 098.1114 165.1747 0014972 130.7604 229.4915 14.80280920 39883 RAX 1 37223U 0 11089.46431449 .00000660 00000-0 10054-3 0 01224 2 37223 071.9716 212.4675 0019443 068.5267 291.7923 14.77296529019265 OOREOS 1 37224U 10062C 11076.42207246 .00000868 00000-0 13086-3 0 01095 2 37224 071.9712 241.3960 0017800 096.5373 263.7815 14.76929834017329 FAST1 1 37227U 0 11097.46438851 .00000649 00000-0 10079-3 0 00202 2 37227 071.9724 195.1988 0015711 049.2746 310.9727 14.76544822002320 NANOSALD 1 37361U 0 11089.51706244 .00095440 00000-0 11232-1 0 01116 2 37361 071.9685 211.9413 0022351 010.5692 349.6865 14.84084543010389 FAST2 1 37380U 0 11097.33137147 .00000205 00000-0 37431-4 0 01326 2 37380 071.9755 195.5127 0016197 046.7229 313.5218 14.76312216020403 NOAA-10 1 16969U 86073A 11096.92385807 .00000000 00000-0 17884-4 0 04575 2 16969 098.6252 127.6586 0013157 075.1154 285.1474 14.27451750277485 NOAA-11 1 19531U 88089A 11096.63665410 .00000239 00000-0 14621-3 0 04626 2 19531 098.7515 185.4532 0011739 036.1937 324.0033 14.14910868162639 NOAA-12 1 21263U 91032A 11096.92386731 .00000156 00000-0 84526-4 0 09716 2 21263 098.7542 114.8837 0013120 037.5342 322.6749 14.25697770034259 MET-3/5 1 21655U 91056A 11096.87537069 .00000051 00000-0 10000-3 0 00814 2 21655 082.5528 101.1606 0013238 341.1692 018.8927 13.17029530944338 MET-2/21 1 22782U 93055A 11096.88354641 .00000011 00000-0 -35762-5 0 00632 2 22782 082.5513 019.4474 0021193 301.7537 058.1561 13.83657123888692 OKEAN-4 1 23317U 94066A 11096.98330345 .00001447 00000-0 17452-3 0 05256 2 23317 082.5368 079.6200 0022404 358.6030 001.5117 14.82998233889998 NOAA-14 1 23455U 94089A 11096.91190111 .00000051 00000-0 50026-4 0 04593 2 23455 098.8521 180.2517 0010051 118.6982 241.5202 14.13812209839007 NOAA-15 1 25338U 98030A 11096.82195608 .00000136 00000-0 76844-4 0 07707 2 25338 098.6507 083.9608 0009829 303.5206 056.5008 14.24897527670566 RESURS 1 25394U 98043A 11097.92418255 .00000043 00000-0 36206-4 0 7650 2 25394 098.3016 104.8187 0002425 074.2143 285.9307 14.24228239662303 FENGYUN1 1 25730U 99025A 11096.92659498 .00001211 00000-0 72821-3 0 03016 2 25730 098.8141 059.7014 0023183 147.7791 212.4794 14.08571302613032 OKEAN-0 1 25860U 99039A 11096.94079695 .00000608 00000-0 10042-3 0 02758 2 25860 097.8761 065.3781 0000690 079.8992 280.2292 14.73744927630169 NOAA-16 1 26536U 00055A 11096.82218115 -.00000008 00000-0 20930-4 0 02526 2 26536 099.1465 125.8946 0010026 229.8725 130.1540 14.12606846543281 NOAA-17 1 27453U 02032A 11096.73041618 .00000240 00000-0 12195-3 0 02467 2 27453 098.3874 139.6953 0011690 004.0351 356.0928 14.24254707456484 NOAA-18 1 28654U 05018A 11096.78731743 .00000199 00000-0 13453-3 0 07273 2 28654 098.9898 047.7843 0013739 309.0424 050.9553 14.11455370302852 NOAA-19 1 33591U 09005A 11096.76878348 .00000075 00000-0 65915-4 0 09209 2 33591 098.8224 038.1423 0013994 174.6544 185.4806 14.11147067111315 HUBBLE 1 20580U 90037B 11097.18782763 .00001628 00000-0 11100-3 0 7423 2 20580 028.4681 120.2080 0003163 099.6331 260.4775 15.01261249948972 ISS 1 25544U 98067A 11097.75640206 .00060054 00000-0 43276-3 0 1507 2 25544 051.6442 162.3701 0002499 086.9408 011.1115 15.72967989709811 CO-58 1 28895U 05043F 11097.61661347 .00000778 00000-0 17098-3 0 8423 2 28895 097.9768 336.6958 0019018 083.1139 277.2220 14.60053366289942 FALCON 1 30776U 07006E 11096.97235591 .00004337 00000-0 30760-3 0 00766 2 30776 035.4296 059.9176 0000440 235.8764 124.1922 15.04341976224317 MAST 1 31126U 07012K 11096.72876688 .00000550 00000-0 13386-3 0 01347 2 31126 097.9017 127.9742 0095076 033.8133 326.9074 14.53708048210709 CAPE1 1 31130U 07012P 11096.64815094 .00000794 00000-0 19230-3 0 01475 2 31130 097.9070 124.7732 0103360 044.1741 316.7672 14.52336200210250 COMPASS 1 32787U 08021E 11096.65993414 .00002039 00000-0 26137-3 0 09554 2 32787 097.8538 161.7932 0016590 052.3855 307.8861 14.82264089158963 AAUSAT2 1 32788U 08021F 11096.83487748 .00002450 00000-0 31147-3 0 09445 2 32788 097.8539 162.1674 0016357 052.8893 307.3810 14.82440365159009 DO-64 1 32789U 08021G 11097.67487327 .00003879 00000-0 48482-3 0 9606 2 32789 097.8635 163.8672 0016150 049.4506 310.8147 14.82813182159134 CO-66 1 32791U 08021J 11096.18958435 .00001868 00000-0 24166-3 0 09459 2 32791 097.8542 161.2938 0016948 053.3374 306.9384 14.81983142158842 RS-30 1 32953U 08025A 11097.71967981 .00000010 00000-0 00000 0 0 6181 2 32953 082.5029 206.5212 0019375 176.9854 183.1351 12.43011501130333 TACSAT-3 1 35001U 09028A 11096.83340053 .00030327 00000-0 59235-3 0 5573 2 35001 040.4546 245.3815 0022333 036.5519 323.6818 15.46507034106029 PHARMSAT 1 35002U 09028B 11096.78944557 .00026938 00000-0 52581-3 0 5173 2 35002 040.4705 243.1395 0025674 039.4082 320.8592 15.46481642106040 HAWKSAT1 1 35003U 09028C 11097.74225018 .00090130 00000-0 11965-2 0 5743 2 35003 040.4566 217.4780 0022504 072.4670 287.8602 15.56850003106414 CP6 1 35004U 09028D 11097.67282457 .00111248 00000-0 12936-2 0 5783 2 35004 040.4563 212.3830 0021632 078.9102 281.4144 15.60274916106457 METEOR-M 1 35865U 09049A 11097.70963162 .00000176 00000-0 10000-3 0 2587 2 35865 098.7109 153.7287 0001862 218.9964 141.1079 14.21834335 80579 RS-38 1 35869U 09049E 11097.71823386 .00000177 00000-0 10000-3 0 2654 2 35869 098.7100 153.7767 0003985 228.4938 131.5889 14.22003542 80584 /EX
participants (1)
-
Ray Hoad